This is the latest recevied weather packets stored in our database for station/object AB8Y-13. If no packets are shown the sender has not sent any weather packets the latest 10 day(s).
| Time | Temp. | Humidity | Pressure | Rain* | Wind** | Luminosity | Snow |
|---|---|---|---|---|---|---|---|
| 1777401260 | 13.89° C | 74% | 1011.2 hPa | 0 mm | - | 193 W/m² | - |
| 1777400956 | 13.89° C | 73% | 1011.1 hPa | 0 mm | - | 177 W/m² | - |
| 1777400652 | 13.89° C | 73% | 1011.1 hPa | 0 mm | - | 252 W/m² | - |
| 1777400350 | 13.89° C | 73% | 1010.9 hPa | 0 mm | - | 411 W/m² | - |
| 1777400045 | 13.33° C | 75% | 1011.2 hPa | 0 mm | - | 224 W/m² | - |
| 1777399742 | 13.33° C | 76% | 1011.1 hPa | 0 mm | - | 250 W/m² | - |
| 1777399439 | 13.33° C | 76% | 1010.7 hPa | 0 mm | - | 169 W/m² | - |
| 1777399137 | 13.33° C | 77% | 1010.7 hPa | 0 mm | - | 180 W/m² | - |
| 1777398834 | 13.33° C | 77% | 1010.8 hPa | 0 mm | - | 150 W/m² | - |
| 1777398531 | 13.33° C | 77% | 1010.6 hPa | 0 mm | - | 151 W/m² | - |
| 1777398227 | 13.33° C | 74% | 1010.8 hPa | 0 mm | - | 136 W/m² | - |
| 1777397924 | 13.33° C | 76% | 1010.9 hPa | 0 mm | - | 173 W/m² | - |
| 1777397620 | 13.33° C | 77% | 1010.9 hPa | 0 mm | - | 186 W/m² | - |
| 1777397316 | 13.33° C | 76% | 1010.8 hPa | 0 mm | - | 154 W/m² | - |
| 1777397013 | 13.33° C | 78% | 1010.8 hPa | 0 mm | - | 134 W/m² | - |
| 1777396710 | 13.89° C | 75% | 1010.8 hPa | 0 mm | - | 136 W/m² | - |
| 1777396406 | 13.89° C | 76% | 1010.5 hPa | 0 mm | - | 255 W/m² | - |
| 1777396103 | 13.33° C | 78% | 1010.5 hPa | 0 mm | - | 268 W/m² | - |
| 1777395799 | 13.89° C | 75% | 1010.5 hPa | 0 mm | - | 192 W/m² | - |
| 1777395494 | 13.89° C | 75% | 1010.7 hPa | 0 mm | - | 238 W/m² | - |
| 1777395192 | 14.44° C | 73% | 1010.4 hPa | 0 mm | - | 239 W/m² | - |
| 1777394889 | 14.44° C | 72% | 1010.3 hPa | 0 mm | - | 241 W/m² | - |
| 1777394585 | 15° C | 70% | 1010.3 hPa | 0 mm | - | 331 W/m² | - |
| 1777394281 | 15° C | 70% | 1010.2 hPa | 0 mm | - | 454 W/m² | - |
| 1777393978 | 15° C | 69% | 1010 hPa | 0 mm | - | 657 W/m² | - |
* Rain latest hour (hover to see other rain measurements)
** Current wind speed in m/s (hover to see current wind gust speed)